Location: Palombina Nuova
(43.6167°N, 13.4000°E)
Time: 09:56:41
(UTC+00:00)

Cosmos 1943 Rocket - Pass Details

Date: 17 February 2020
Orbit: 813 x 842 km, 71.0° (Epoch: 09 April)

Event Time Altitude Azimuth Distance (km) Brightness Sun altitude
Exits shadow 02:49:49 - 360° (N) 2,455 4.8 -35.3°
Reaches altitude 10° 02:49:59 10° 1° (N) 2,413 4.7 -35.3°
Maximum altitude 02:54:04 21° 49° (NE) 1,769 4.4 -34.6°
Drops below altitude 10° 02:58:09 10° 97° (E) 2,402 5.3 -33.9°
Sets 03:01:10 0° 113° (ESE) 3,331 6.0 -33.4°
